Location: Gokavaram
(16.9752°N, 81.0696°E)
Time: 10:38:45
(UTC+00:00)

Cosmos 1603 - Pass Details

Date: 15 May 2026
Orbit: 828 x 860 km, 71.0° (Epoch: 6 June)

Event Time Altitude Azimuth Distance (km) Brightness Sun altitude
Rises 22:07:40 0° 344° (NNW) 3,425 7.1 -26.0°
Reaches altitude 10° 22:10:08 10° 345° (NNW) 2,486 6.3 -25.5°
Maximum altitude 22:15:51 84° 74° (ENE) 860 3.7 -24.3°
Drops below altitude 10° 22:21:32 10° 162° (SSE) 2,465 6.0 -23.1°
Sets 22:23:58 0° 163° (SSE) 3,394 6.7 -22.6°
